Stations météo

réclame
Mon MeteoGroup
Lossiemouth, Grande-Bretagne (3068): Température de l'air & dewpoint: 18.11.2020 11:00:00 - 24.11.2020 11:00:00 (GMT)Lossiemouth, Grande-Bretagne (3068): Vitesse du vent & gusts: 18.11.2020 11:00:00 - 24.11.2020 11:00:00 (GMT)Lossiemouth, Grande-Bretagne (3068): Direction du vent: 18.11.2020 11:00:00 - 24.11.2020 11:00:00 (GMT)Lossiemouth, Grande-Bretagne (3068): reduced air pressure: 18.11.2020 11:00:00 - 24.11.2020 11:00:00 (GMT)Lossiemouth, Grande-Bretagne (3068): visibility: 18.11.2020 11:00:00 - 24.11.2020 11:00:00 (GMT)Lossiemouth, Grande-Bretagne (3068): Quantités de précipitations: 18.11.2020 11:00:00 - 24.11.2020 11:00:00 (GMT)
Date & Time tt [°C] td [°C] ff [km/h] ff [knt] fx [km/h] fx [knt] dd ppp [hPa] vv [km] rr [mm]
24.11.2020 11:00:00 8,6 6,4 8 4 - - SE 1002,6 10 -
24.11.2020 10:00:00 7,9 5,9 11 6 - - S 1003,4 10 0,0
24.11.2020 09:00:00 8,0 5,2 11 6 - - SSW 1003,8 10 0,0
24.11.2020 08:00:00 7,9 5,7 9 5 - - SSW 1003,9 10 0,0
24.11.2020 07:00:00 8,3 5,3 11 6 - - SW 1004,2 10 0,0
24.11.2020 06:00:00 8,9 5,5 16 9 - - SW 1003,7 10 0,0
24.11.2020 05:00:00 8,2 4,8 13 7 - - SW 1003,8 10 0,0
24.11.2020 04:00:00 8,0 5,0 5 3 - - SSW 1004,2 10 0,0
24.11.2020 03:00:00 8,1 4,5 18 10 - - SW 1004,2 10 0,0
24.11.2020 02:00:00 8,1 5,1 24 13 - - SW 1003,8 10 0,0
24.11.2020 01:00:00 6,4 4,9 15 8 - - SSW 1004,1 10 0,0
24.11.2020 00:00:00 6,3 5,1 13 7 - - S 1004,6 10 0,0
23.11.2020 23:00:00 7,1 5,7 9 5 - - S 1004,9 10 0,0
23.11.2020 22:00:00 7,8 6,1 9 5 - - SSW 1005,2 30 0,2
23.11.2020 21:00:00 8,3 6,7 9 5 - - SSW 1005,5 10 0,2
23.11.2020 20:00:00 8,4 7,1 9 5 - - SSW 1005,8 10 0,0
23.11.2020 19:00:00 8,5 6,7 11 6 - - SW 1005,8 20 0,2
23.11.2020 18:00:00 9,1 6,0 13 7 - - SSW 1005,6 10 0,0
23.11.2020 17:00:00 8,3 4,5 16 9 - - SSW 1005,4 10 0,0
23.11.2020 16:00:00 9,1 4,7 34 18 48 26 SSW 1005,7 10 0,0
23.11.2020 15:00:00 9,0 3,7 34 18 52 28 SW 1006,9 10 0,0
23.11.2020 14:00:00 8,9 3,3 37 20 59 32 SSW 1007,4 10 0,0
23.11.2020 13:00:00 8,9 2,5 34 18 50 27 SSW 1008,8 10 0,0
23.11.2020 12:00:00 8,1 1,0 22 12 61 33 SSW 1010,1 10 0,0
23.11.2020 11:00:00 8,0 1,6 42 23 63 34 SSW 1011,5 10 0,0
23.11.2020 10:00:00 8,0 2,7 34 18 48 26 SSW 1012,3 10 0,0
23.11.2020 09:00:00 8,2 3,6 26 14 46 25 SSW 1013,1 10 0,0
23.11.2020 08:00:00 7,8 4,5 21 11 - - SSW 1013,5 10 0,0
23.11.2020 07:00:00 6,9 4,1 21 11 - - SSW 1013,9 10 0,0
23.11.2020 06:00:00 5,3 3,2 13 7 - - S 1014,6 10 0,0
23.11.2020 05:00:00 6,7 4,1 22 12 - - SW 1015,3 50 0,0
23.11.2020 04:00:00 4,0 1,5 13 7 - - SW 1015,8 10 0,0
23.11.2020 03:00:00 4,7 2,5 15 8 - - SSW 1016,3 50 0,0
23.11.2020 02:00:00 3,9 1,8 8 4 - - SSW 1016,9 10 0,0
23.11.2020 01:00:00 4,3 2,1 16 9 - - SW 1017,0 10 0,0
23.11.2020 00:00:00 3,1 0,9 13 7 - - WSW 1017,2 10 0,0
22.11.2020 23:00:00 3,9 1,5 21 11 - - WSW 1017,2 10 0,0
22.11.2020 22:00:00 3,4 1,4 22 12 - - WSW 1017,1 10 0,0
22.11.2020 21:00:00 2,2 0,3 13 7 - - WSW 1017,3 10 0,0
22.11.2020 20:00:00 3,4 1,1 16 9 - - WSW 1017,3 10 0,0
22.11.2020 19:00:00 3,6 1,7 21 11 - - WSW 1016,9 10 0,0
22.11.2020 18:00:00 3,9 1,7 16 9 - - WSW 1016,9 60 0,0
22.11.2020 17:00:00 4,9 2,2 22 12 - - WSW 1016,4 50 0,0
22.11.2020 16:00:00 6,0 2,5 24 13 - - WSW 1016,2 10 0,0
22.11.2020 15:00:00 6,9 2,8 28 15 46 25 WSW 1016,0 10 0,0
22.11.2020 14:00:00 7,1 2,8 26 14 - - WSW 1016,2 10 0,0
22.11.2020 13:00:00 7,1 2,7 28 15 - - WSW 1016,1 10 0,0
22.11.2020 12:00:00 7,6 2,4 29 16 - - WSW 1016,1 10 0,0
22.11.2020 11:00:00 6,9 2,5 21 11 - - SW 1016,0 10 0,0
22.11.2020 10:00:00 6,5 2,6 29 16 - - W 1015,2 10 0,0
22.11.2020 09:00:00 5,2 2,3 26 14 46 25 WSW 1014,6 10 0,0
22.11.2020 08:00:00 6,2 2,9 31 17 57 31 WSW 1013,9 10 0,0
22.11.2020 07:00:00 6,2 2,8 39 21 57 31 WSW 1013,0 10 0,0
22.11.2020 06:00:00 5,7 2,5 41 22 61 33 WSW 1012,5 10 0,0
22.11.2020 05:00:00 6,1 2,5 46 25 74 40 WSW 1011,9 10 0,0
22.11.2020 04:00:00 6,0 1,3 35 19 67 36 WSW 1011,2 10 0,0
22.11.2020 03:00:00 6,1 1,4 41 22 55 30 WSW 1010,6 10 0,0
22.11.2020 02:00:00 5,0 1,3 29 16 55 30 SW 1010,4 10 0,0
22.11.2020 01:00:00 5,6 1,5 29 16 54 29 WSW 1010,4 10 0,0
22.11.2020 00:00:00 5,4 1,5 39 21 54 29 WSW 1009,8 10 0,0
21.11.2020 23:00:00 4,8 1,4 28 15 - - SW 1009,6 10 0,0
21.11.2020 22:00:00 4,8 1,7 26 14 - - SW 1009,8 10 0,0
21.11.2020 21:00:00 5,2 1,5 21 11 - - WSW 1010,0 10 0,0
21.11.2020 20:00:00 4,8 1,6 21 11 - - WSW 1010,2 10 0,0
21.11.2020 19:00:00 5,4 1,2 28 15 - - WSW 1009,9 10 0,0
21.11.2020 18:00:00 5,4 1,6 29 16 - - WSW 1009,6 10 0,0
21.11.2020 17:00:00 6,0 1,8 34 18 54 29 WSW 1009,6 10 0,0
21.11.2020 16:00:00 5,7 2,6 28 15 - - WSW 1009,1 10 0,0
21.11.2020 15:00:00 7,2 2,1 26 14 - - WSW 1009,3 10 0,0
21.11.2020 14:00:00 8,2 2,7 34 18 54 29 WSW 1009,3 10 0,0
21.11.2020 13:00:00 7,9 3,2 34 18 48 26 WSW 1009,5 10 0,0
21.11.2020 12:00:00 8,7 4,0 29 16 50 27 WSW 1009,4 10 0,0
21.11.2020 11:00:00 8,5 3,8 26 14 46 25 WSW 1009,0 10 0,0
21.11.2020 10:00:00 8,0 3,6 44 24 57 31 WSW 1008,2 10 0,0
21.11.2020 09:00:00 7,5 2,7 28 15 - - WSW 1007,6 10 0,0
21.11.2020 08:00:00 6,5 2,6 21 11 - - WSW 1007,7 10 0,0
21.11.2020 07:00:00 6,6 3,4 22 12 46 25 WSW 1007,7 10 0,0
21.11.2020 06:00:00 7,5 4,2 28 15 50 27 WSW 1007,6 10 0,0
21.11.2020 05:00:00 7,6 4,6 37 20 65 35 WSW 1007,3 30 0,2
21.11.2020 04:00:00 8,5 3,5 37 20 54 29 WSW 1006,8 10 0,0
21.11.2020 03:00:00 8,3 4,1 42 23 61 33 WSW 1006,8 10 0,0
21.11.2020 02:00:00 9,5 4,2 42 23 76 41 W 1007,6 10 0,0
21.11.2020 01:00:00 9,9 6,0 37 20 70 38 W 1006,9 10 0,0
21.11.2020 00:00:00 10,9 5,9 46 25 72 39 WSW 1006,5 10 0,0
20.11.2020 23:00:00 11,7 6,3 46 25 59 32 WSW 1006,2 10 0,0
20.11.2020 22:00:00 11,3 6,6 24 13 59 32 WSW 1006,7 10 0,0
20.11.2020 21:00:00 13,1 8,3 44 24 67 36 WSW 1007,0 10 0,0
20.11.2020 20:00:00 13,4 9,0 39 21 63 34 SW 1006,8 70 0,0
20.11.2020 19:00:00 13,3 9,1 26 14 - - SW 1007,7 10 0,0
20.11.2020 18:00:00 12,0 8,7 34 18 46 25 SSW 1007,5 10 0,0
20.11.2020 17:00:00 11,6 7,8 35 19 55 30 SSW 1008,9 10 0,0
20.11.2020 16:00:00 11,0 7,2 28 15 52 28 SW 1009,9 10 0,0
20.11.2020 15:00:00 10,8 7,2 29 16 - - SSW 1010,8 10 0,4
20.11.2020 14:00:00 10,4 7,6 21 11 - - SSW 1011,7 10 0,6
20.11.2020 13:00:00 9,9 5,8 9 5 - - SSW 1013,5 10 0,0
20.11.2020 12:00:00 8,8 5,0 21 11 - - S 1015,5 10 0,0
20.11.2020 11:00:00 6,6 3,6 11 6 - - S 1017,7 60 0,0
20.11.2020 10:00:00 5,6 2,9 15 8 - - SSE 1018,8 50 0,0
20.11.2020 09:00:00 4,0 1,1 13 7 - - ESE 1019,8 10 0,0
20.11.2020 08:00:00 3,1 0,5 15 8 - - SE 1020,9 10 0,0
20.11.2020 07:00:00 2,5 -0,4 15 8 - - SE 1022,4 10 0,0
20.11.2020 06:00:00 1,5 -1,3 11 6 - - SE 1023,3 10 0,0
20.11.2020 05:00:00 1,2 -1,7 11 6 - - SE 1024,2 10 0,0
20.11.2020 04:00:00 0,7 -1,7 13 7 - - SE 1024,8 10 0,0
20.11.2020 03:00:00 0,1 -1,8 11 6 - - SSE 1026,4 10 0,0
20.11.2020 02:00:00 0,6 -1,9 15 8 - - S 1027,0 10 0,0
20.11.2020 01:00:00 0,2 -2,1 13 7 - - S 1027,6 50 0,0
20.11.2020 00:00:00 -0,6 -2,5 9 5 - - SSW 1028,3 10 0,0
19.11.2020 23:00:00 0,6 -1,7 15 8 - - SW 1028,7 10 0,0
19.11.2020 22:00:00 -0,2 -2,5 11 6 - - WSW 1028,9 10 0,0
19.11.2020 21:00:00 2,5 -0,6 13 7 - - SW 1028,6 50 0,0
19.11.2020 20:00:00 3,5 0,1 21 11 - - WSW 1028,6 10 0,0
19.11.2020 19:00:00 3,9 0,6 22 12 - - WSW 1028,7 10 0,0
19.11.2020 18:00:00 3,8 0,4 16 9 - - WSW 1028,4 40 0,0
19.11.2020 17:00:00 4,9 0,6 26 14 - - W 1027,7 10 0,0
19.11.2020 16:00:00 4,5 0,7 22 12 - - W 1026,8 10 0,0
19.11.2020 15:00:00 4,7 0,6 29 16 50 27 WNW 1026,1 10 0,0
19.11.2020 14:00:00 4,8 1,0 35 19 54 29 WNW 1026,8 40 0,0
19.11.2020 13:00:00 5,2 -0,1 37 20 50 27 WNW 1026,6 10 0,0
19.11.2020 12:00:00 5,4 -0,5 34 18 48 26 WNW 1025,5 10 0,0
19.11.2020 11:00:00 4,5 -0,3 29 16 52 28 WNW 1024,6 10 0,0
19.11.2020 10:00:00 4,6 0,0 34 18 46 25 WNW 1023,5 10 0,0
19.11.2020 09:00:00 3,8 0,0 26 14 - - WNW 1022,4 10 0,0
19.11.2020 08:00:00 3,8 -0,2 29 16 55 30 NW 1021,6 10 0,0
19.11.2020 07:00:00 3,9 0,2 37 20 54 29 NW 1020,8 30 0,0
19.11.2020 06:00:00 4,1 -0,1 34 18 55 30 NW 1019,3 10 0,0
19.11.2020 05:00:00 4,5 -0,8 37 20 63 34 NNW 1017,0 10 0,0
19.11.2020 04:00:00 4,3 0,2 50 27 68 37 NNW 1015,0 10 0,0
19.11.2020 03:00:00 5,4 0,0 48 26 72 39 N 1013,0 10 0,0
19.11.2020 02:00:00 5,0 0,9 59 32 74 40 N 1011,3 10 0,0
19.11.2020 01:00:00 6,0 0,8 50 27 72 39 N 1008,8 10 0,0
19.11.2020 00:00:00 5,7 2,4 57 31 78 42 N 1006,1 10 0,2
18.11.2020 23:00:00 6,2 3,8 54 29 85 46 N 1003,1 10 0,0
18.11.2020 22:00:00 6,9 4,7 50 27 72 39 NNW 999,8 10 0,8
18.11.2020 21:00:00 7,0 5,6 42 23 55 30 NW 996,9 4,0 1,2
18.11.2020 20:00:00 6,8 4,2 37 20 54 29 WSW 995,1 5 0,0
18.11.2020 19:00:00 7,0 3,5 34 18 46 25 WSW 993,9 10 0,0
18.11.2020 18:00:00 7,2 3,9 29 16 50 27 WSW 993,9 10 0,0
18.11.2020 17:00:00 7,7 5,2 34 18 54 29 WSW 993,9 10 0,4
18.11.2020 16:00:00 9,3 6,8 29 16 50 27 WSW 993,3 10 0,0
18.11.2020 15:00:00 9,8 7,7 26 14 - - WSW 993,4 10 0,0
18.11.2020 14:00:00 11,0 9,1 24 13 - - SW 993,1 10 0,0
18.11.2020 13:00:00 10,8 10,2 16 9 - - W 993,7 10 0,8
18.11.2020 12:00:00 11,2 10,4 16 9 - - WSW 994,4 10 0,8
18.11.2020 11:00:00 11,6 11,0 22 12 48 26 W 994,6 10 1,0

tt = Température de l'air
td = dewpoint
ff = Vitesse du vent
fx = gusts
dd = Direction du vent
ppp = reduced air pressure
vv = visibility
rr = Quantités de précipitations

stations d'obs. à proximité